Phuket, Thailand

10:29 PM +07 on July 26, 2017 (GMT +0700)
Phuket International

Weather History for VTSP - May, 2013

Change the Weather History Date:

Monday, May 6, 2013

  Actual Average Record
Temperature  
Mean Temperature 81 °F -  
Max Temperature 87 °F 89 °F 96 °F (2002)
Min Temperature 75 °F 78 °F 71 °F (2017)
Cooling Degree Days 16    
Growing Degree Days 31 (Base 50)    
Moisture  
Dew Point 76 °F    
Average Humidity 87    
Maximum Humidity 100    
Minimum Humidity 66    
Precipitation  
Precipitation 0.87 in 0.44 in - ()
Sea Level Pressure  
Sea Level Pressure 29.80 in    
Wind  
Wind Speed 2 mph ()    
Max Wind Speed 12 mph    
Max Gust Speed -    
Visibility 4.7 miles    
Events Rain    
Averages and records for this station are not official NWS values.
T = Trace of Precipitation, MM = Missing Value Source: Averaged Metar Reports

Daily Weather History Graph

Daily Weather History Graph

Search for Another Location

Airport or City:

Trip Planner

Search our weather history database for the weather conditions in past years. The results will help you decide how hot, cold, wet, or windy it might be!

Date:

Astronomy

May. 06, 2013 Rise Set
Actual Time 6:10 AM +07 6:36 PM +07
Civil Twilight 5:48 AM +07 6:58 PM +07
Nautical Twilight 5:22 AM +07 7:24 PM +07
Astronomical Twilight 4:57 AM +07 7:49 PM +07
Moon 3:14 AM +07 (5/6) 3:40 PM +07 (5/6)
Length of Visible Light 13h 10m
Length of Day
12h 26m
Waning Crescent, 14% of the Moon is Illuminated
May 6
Waning Crescent
May 10
New
May 18
First Quarter
May 25
Full
Jun 1
Last Quarter

Hourly Weather History & Observations

Time (+07) Temp. Heat Index Dew Point Humidity Pressure Visibility Wind Dir Wind Speed Gust Speed Precip Events Conditions
12:00 AM 78.8 °F - 75.2 °F 89% 29.83 in 5.6 mi Variable 1.2 mph - N/A   Mostly Cloudy
12:30 AM 78.8 °F - 75.2 °F 89% 29.83 in 5.6 mi Variable 2.3 mph - N/A   Mostly Cloudy
1:00 AM 80 °F - 77 °F 86% 29.80 in 6 mi Calm Calm - -   Scattered Clouds
1:00 AM 78.8 °F - 75.2 °F 89% 29.80 in 5.6 mi Variable 1.2 mph - N/A   Scattered Clouds
1:30 AM 78.8 °F - 75.2 °F 89% 29.80 in 5.6 mi Variable 2.3 mph - N/A   Scattered Clouds
2:00 AM 77.0 °F - 75.2 °F 94% 29.80 in 5.6 mi Calm Calm - N/A   Scattered Clouds
2:30 AM 77.0 °F - 75.2 °F 94% 29.77 in 5.6 mi Calm Calm - N/A   Scattered Clouds
3:00 AM 77.0 °F - 75.2 °F 94% 29.77 in 5.6 mi Variable 1.2 mph - N/A   Mostly Cloudy
3:30 AM 77.0 °F - 75.2 °F 94% 29.77 in 5.6 mi Variable 2.3 mph - N/A   Mostly Cloudy
4:00 AM 77.0 °F - 75.2 °F 94% 29.77 in 5.6 mi Calm Calm - N/A   Mostly Cloudy
4:30 AM 77.0 °F - 75.2 °F 94% 29.77 in 5.6 mi Variable 1.2 mph - N/A   Mostly Cloudy
5:00 AM 77.0 °F - 75.2 °F 94% 29.77 in 5.6 mi Calm Calm - N/A   Mostly Cloudy
5:30 AM 77.0 °F - 75.2 °F 94% 29.77 in 5.6 mi Variable 1.2 mph - N/A   Mostly Cloudy
6:00 AM 77.0 °F - 75.2 °F 94% 29.77 in 5.6 mi Variable 2.3 mph - N/A   Mostly Cloudy
6:30 AM 77.0 °F - 75.2 °F 94% 29.80 in 5.6 mi Calm Calm - N/A   Mostly Cloudy
7:00 AM 81 °F - 76 °F 80% 29.76 in 6 mi Calm Calm - -   Scattered Clouds
7:00 AM 78.8 °F - 75.2 °F 89% 29.80 in 5.6 mi Variable 1.2 mph - N/A   Mostly Cloudy
7:30 AM 80.6 °F 87.1 °F 77.0 °F 89% 29.83 in 5.6 mi Variable 2.3 mph - N/A   Mostly Cloudy
8:00 AM 82.4 °F 89.5 °F 75.2 °F 79% 29.83 in 5.6 mi Variable 2.3 mph - N/A   Mostly Cloudy
8:30 AM 84.2 °F 92.3 °F 75.2 °F 74% 29.83 in 5.6 mi Calm Calm - N/A   Mostly Cloudy
9:00 AM 84.2 °F 94.1 °F 77.0 °F 79% 29.83 in 5.6 mi Variable 1.2 mph - N/A   Mostly Cloudy
9:30 AM 84.2 °F 94.1 °F 77.0 °F 79% 29.83 in 5.6 mi Calm Calm - N/A   Mostly Cloudy
10:00 AM 86.0 °F 96.9 °F 77.0 °F 74% 29.86 in 5.6 mi Variable 2.3 mph - N/A   Mostly Cloudy
10:30 AM 86.0 °F 96.9 °F 77.0 °F 74% 29.86 in 5.6 mi ENE 5.8 mph - N/A   Mostly Cloudy
11:00 AM 86.0 °F 96.9 °F 77.0 °F 74% 29.86 in 5.6 mi ENE 5.8 mph - N/A   Mostly Cloudy
11:30 AM 87.8 °F 99.7 °F 77.0 °F 70% 29.83 in 5.6 mi ENE 6.9 mph - N/A   Mostly Cloudy
12:00 PM 87.8 °F 97.6 °F 75.2 °F 66% 29.83 in 5.6 mi ENE 4.6 mph - N/A   Mostly Cloudy
12:30 PM 86.0 °F 99.3 °F 78.8 °F 79% 29.83 in 5.6 mi West 9.2 mph - N/A   Mostly Cloudy
1:00 PM 87 °F - 80 °F 75% 29.77 in 6 mi West 3.5 mph - - Rain Light Rain
1:00 PM 86.0 °F 96.9 °F 77.0 °F 74% 29.80 in 4.3 mi West 8.1 mph - N/A Rain Light Rain
1:30 PM 84.2 °F 96.1 °F 78.8 °F 84% 29.77 in 3.1 mi West 10.4 mph - N/A Rain Rain
2:00 PM 84.2 °F 94.1 °F 77.0 °F 79% 29.77 in 3.1 mi West 9.2 mph - N/A Rain Rain
2:30 PM 78.8 °F - 75.2 °F 89% 29.74 in 3.1 mi SSW 6.9 mph - N/A Rain Light Rain
3:00 PM 80.6 °F 86.2 °F 75.2 °F 84% 29.74 in 3.1 mi Variable 2.3 mph - N/A Rain Light Rain
3:30 PM 80.6 °F 86.2 °F 75.2 °F 84% 29.74 in 4.3 mi Variable 2.3 mph - N/A   Mostly Cloudy
4:00 PM 80.6 °F 85.4 °F 73.4 °F 79% 29.77 in 4.3 mi Variable 3.5 mph - N/A   Mostly Cloudy
4:30 PM 80.6 °F 86.2 °F 75.2 °F 84% 29.77 in 3.7 mi Variable 2.3 mph - N/A Rain Light Rain
5:00 PM 77.0 °F - 73.4 °F 89% 29.77 in 1.9 mi ENE 11.5 mph - N/A Rain Rain
5:30 PM 77.0 °F - 73.4 °F 89% 29.77 in 3.1 mi ENE 6.9 mph - N/A Rain Light Rain
6:00 PM 75.2 °F - 73.4 °F 94% 29.80 in 3.1 mi SE 3.5 mph - N/A Rain Light Rain
6:30 PM 77.0 °F - 75.2 °F 94% 29.83 in 3.1 mi ENE 4.6 mph - N/A Rain Light Rain
7:00 PM 77 °F - 77 °F 100% 29.78 in 6 mi Calm Calm - - Rain Light Rain
7:00 PM 77.0 °F - 75.2 °F 94% 29.83 in 3.1 mi NE 9.2 mph - N/A Rain Light Rain
7:30 PM 77.0 °F - 75.2 °F 94% 29.83 in 3.1 mi ENE 8.1 mph - N/A Rain Light Rain
8:00 PM 77.0 °F - 73.4 °F 89% 29.83 in 3.1 mi East 5.8 mph - N/A Rain Light Rain
8:30 PM 77.0 °F - 75.2 °F 94% 29.83 in 3.1 mi ENE 4.6 mph - N/A Rain Light Rain
9:00 PM 77.0 °F - 73.4 °F 89% 29.83 in 3.1 mi Variable 1.2 mph - N/A Rain Light Rain
9:30 PM 77.0 °F - 75.2 °F 94% 29.83 in 4.3 mi Calm Calm - N/A   Mostly Cloudy
10:00 PM 77.0 °F - 75.2 °F 94% 29.83 in 4.3 mi Calm Calm - N/A   Mostly Cloudy
10:30 PM 77.0 °F - 75.2 °F 94% 29.83 in 4.3 mi Variable 3.5 mph - N/A   Mostly Cloudy
11:00 PM 77.0 °F - 75.2 °F 94% 29.83 in 4.3 mi Calm Calm - N/A   Mostly Cloudy
11:30 PM 78.8 °F - 75.2 °F 89% 29.80 in 4.3 mi Variable 1.2 mph - N/A   Mostly Cloudy